User: anonymous   Login
Location: Unspecified
(0.0000°N, 0.0000°E)
Time: 03:37:46
(UTC+00:00)
Language:

AEHF 3 (USA 246) - Orbit

View from above orbital plane
View from above orbital plane
View from above satellite
View from above satellite

Ground track
Ground track

The orbit data is extracted from the following two-line orbital elements,

1 39256U 13050A   17079.92097222 0.00000000  00000-0  00000-0 0    04
2 39256   2.6100 303.4060 0005920  52.3590 306.5955  1.00270000    05
Epoch (UTC): 20 March 2017 22:06:12
Eccentricity: 0.0005920
inclination: 2.6100°
perigee height: 35762 km
apogee height: 35811 km
right ascension of ascending node: 303.4060°
argument of perigee: 52.3590°
revolutions per day: 1.00270000
mean anomaly at epoch: 306.5955°
orbit number at epoch: 0

The dashed part of the orbit path shows where the satellite is in the earth's shadow,  

DLR